IGO920J VEBS-VOHS

Flight info

Callsign IGO920J
Flight time N/A
Altitude 34000
Route MEPOL W41 ANBAS RISOT6
Aircraft A320/M-SDE3FGHIRWY/LB1

Departure

Time 2026-05-07 11:48
Airport Biju Patnaik International Airport (VEBS)

Arrival

Time N/A
Airport Rajiv Gandhi International Airport (VOHS)
Time Latitude Longitude Altitude Speed Heading
2026-05-07 11:26 20.25412 85.81543 124 ft 0 kts 53°
2026-05-07 11:30 20.25412 85.81542 124 ft 0 kts 53°
2026-05-07 11:39 20.25409 85.81538 119 ft 3 kts 53°
2026-05-07 11:39 20.25393 85.81516 118 ft 4 kts 51°
2026-05-07 11:39 20.25375 85.81495 119 ft 4 kts 36°
2026-05-07 11:40 20.25356 85.81486 119 ft 3 kts 329°
2026-05-07 11:40 20.25352 85.81488 119 ft 1 kts 320°
2026-05-07 11:43 20.25353 85.81487 119 ft 1 kts 320°
2026-05-07 11:43 20.25367 85.81475 125 ft 4 kts 320°
2026-05-07 11:43 20.25395 85.81444 122 ft 7 kts 295°
2026-05-07 11:43 20.25373 85.81391 120 ft 10 kts 232°
2026-05-07 11:44 20.25328 85.81325 119 ft 13 kts 234°
2026-05-07 11:44 20.25272 85.81242 121 ft 15 kts 234°
2026-05-07 11:44 20.25207 85.81192 119 ft 13 kts 169°
2026-05-07 11:44 20.25130 85.81251 120 ft 15 kts 144°
2026-05-07 11:45 20.25041 85.81319 119 ft 17 kts 144°
2026-05-07 11:45 20.24936 85.81400 122 ft 20 kts 144°
2026-05-07 11:45 20.24820 85.81489 121 ft 21 kts 143°
2026-05-07 11:45 20.24695 85.81587 124 ft 23 kts 144°
2026-05-07 11:46 20.24561 85.81690 129 ft 24 kts 143°
2026-05-07 11:46 20.24421 85.81799 128 ft 26 kts 144°
2026-05-07 11:46 20.24270 85.81915 133 ft 27 kts 144°
2026-05-07 11:46 20.24139 85.81999 133 ft 15 kts 180°
2026-05-07 11:47 20.24093 85.82043 133 ft 7 kts 42°
2026-05-07 11:47 20.24125 85.82029 133 ft 7 kts 320°
2026-05-07 11:47 20.24173 85.81991 133 ft 15 kts 323°
2026-05-07 11:47 20.24468 85.81762 128 ft 89 kts 324°
2026-05-07 11:48 20.25132 85.81249 119 ft 143 kts 323°
2026-05-07 11:48 20.26033 85.80568 457 ft 161 kts 322°
2026-05-07 11:48 20.26941 85.79907 1050 ft 159 kts 324°
2026-05-07 11:48 20.27611 85.79021 1540 ft 155 kts 278°
2026-05-07 11:49 20.27569 85.77892 1905 ft 158 kts 246°
2026-05-07 11:49 20.27013 85.76817 2293 ft 174 kts 239°
2026-05-07 11:49 20.26367 85.75649 2671 ft 194 kts 237°
2026-05-07 11:49 20.25635 85.74327 3038 ft 219 kts 238°
2026-05-07 11:50 20.24825 85.72851 3427 ft 243 kts 239°
2026-05-07 11:50 20.23935 85.71217 3884 ft 265 kts 240°
2026-05-07 11:50 20.23001 85.69484 4627 ft 274 kts 241°
2026-05-07 11:50 20.22044 85.67703 5459 ft 279 kts 241°
2026-05-07 11:51 20.21072 85.65895 6318 ft 284 kts 242°
2026-05-07 11:51 20.20086 85.64057 7150 ft 287 kts 242°
2026-05-07 11:51 20.19096 85.62212 8063 ft 287 kts 242°
2026-05-07 11:51 20.18104 85.60366 8977 ft 288 kts 242°
2026-05-07 11:52 20.17116 85.58520 9823 ft 290 kts 242°
2026-05-07 11:52 20.16083 85.56589 10148 ft 312 kts 242°
2026-05-07 11:52 20.14976 85.54524 10507 ft 328 kts 241°
2026-05-07 11:52 20.13830 85.52400 11160 ft 333 kts 241°
2026-05-07 11:53 20.12675 85.50258 11878 ft 335 kts 242°
2026-05-07 11:53 20.11509 85.48095 12604 ft 338 kts 242°
2026-05-07 11:53 20.10338 85.45920 13325 ft 340 kts 242°
2026-05-07 11:53 20.09156 85.43724 13987 ft 343 kts 242°
2026-05-07 11:54 20.07964 85.41514 14568 ft 347 kts 241°
2026-05-07 11:54 20.06759 85.39280 15175 ft 349 kts 241°
2026-05-07 11:54 20.05549 85.37037 15825 ft 350 kts 241°
2026-05-07 11:54 20.04332 85.34783 16465 ft 352 kts 240°
2026-05-07 11:55 20.03112 85.32520 17094 ft 354 kts 240°
2026-05-07 11:55 20.01887 85.30245 17722 ft 356 kts 240°
2026-05-07 11:55 20.00649 85.27953 18313 ft 358 kts 240°
2026-05-07 11:55 19.99404 85.25653 18847 ft 360 kts 240°
2026-05-07 11:56 19.98149 85.23335 19395 ft 362 kts 240°
2026-05-07 11:56 19.96892 85.21013 19928 ft 364 kts 240°
2026-05-07 11:56 19.95630 85.18676 20452 ft 366 kts 240°
2026-05-07 11:56 19.94359 85.16326 20964 ft 368 kts 240°
2026-05-07 11:57 19.93080 85.13964 21471 ft 370 kts 240°
2026-05-07 11:57 19.91795 85.11587 21951 ft 372 kts 240°
2026-05-07 11:57 19.90502 85.09201 22422 ft 374 kts 240°
2026-05-07 11:57 19.89201 85.06801 22899 ft 375 kts 240°
2026-05-07 11:58 19.87897 85.04398 23361 ft 377 kts 240°
2026-05-07 11:58 19.86574 85.01964 23636 ft 382 kts 240°
2026-05-07 11:58 19.85235 84.99503 23950 ft 386 kts 240°
2026-05-07 11:58 19.83892 84.97032 24283 ft 388 kts 240°
2026-05-07 11:59 19.82554 84.94572 24627 ft 390 kts 240°
2026-05-07 11:59 19.81196 84.92067 24997 ft 392 kts 240°
2026-05-07 11:59 19.79814 84.89517 25363 ft 394 kts 240°
2026-05-07 11:59 19.78445 84.86990 25708 ft 396 kts 240°
2026-05-07 12:00 19.77082 84.84483 26062 ft 398 kts 240°
2026-05-07 12:00 19.75694 84.81934 26405 ft 400 kts 240°
2026-05-07 12:00 19.74295 84.79371 26783 ft 402 kts 240°
2026-05-07 12:00 19.72872 84.76763 27118 ft 404 kts 240°
2026-05-07 12:01 19.71479 84.74211 27404 ft 406 kts 240°
2026-05-07 12:01 19.70059 84.71613 27722 ft 409 kts 240°
2026-05-07 12:01 19.68630 84.68997 28050 ft 411 kts 240°
2026-05-07 12:01 19.67193 84.66367 28398 ft 413 kts 240°
2026-05-07 12:02 19.65748 84.63721 28661 ft 417 kts 240°
2026-05-07 12:02 19.64293 84.61049 28968 ft 419 kts 240°
2026-05-07 12:02 19.62830 84.58365 29299 ft 422 kts 240°
2026-05-07 12:02 19.61355 84.55665 29646 ft 424 kts 240°
2026-05-07 12:03 19.59874 84.52952 29974 ft 426 kts 240°
2026-05-07 12:03 19.58388 84.50228 30290 ft 428 kts 240°
2026-05-07 12:03 19.56893 84.47496 30563 ft 429 kts 240°
2026-05-07 12:03 19.55389 84.44756 30857 ft 431 kts 240°
2026-05-07 12:04 19.53878 84.42009 31172 ft 432 kts 240°
2026-05-07 12:04 19.52362 84.39254 31455 ft 434 kts 240°
2026-05-07 12:04 19.50843 84.36489 31768 ft 435 kts 240°
2026-05-07 12:04 19.49329 84.33725 32180 ft 433 kts 240°
2026-05-07 12:05 19.47816 84.30964 32617 ft 431 kts 240°
2026-05-07 12:05 19.46314 84.28227 33056 ft 429 kts 240°
2026-05-07 12:05 19.44817 84.25501 33548 ft 427 kts 240°
2026-05-07 12:05 19.43329 84.22795 33810 ft 426 kts 240°
2026-05-07 12:06 19.41853 84.20106 33863 ft 417 kts 240°
2026-05-07 12:06 19.39072 84.14795 33874 ft 410 kts 242°
2026-05-07 12:07 19.36810 84.10356 33876 ft 408 kts 242°
2026-05-07 12:07 19.34083 84.05057 33871 ft 412 kts 241°
2026-05-07 12:08 19.31317 83.99738 33872 ft 413 kts 241°
2026-05-07 12:08 19.28542 83.94419 33866 ft 413 kts 241°
2026-05-07 12:09 19.25773 83.89095 33848 ft 413 kts 241°
2026-05-07 12:09 19.23013 83.83806 33855 ft 413 kts 241°
2026-05-07 12:10 19.20234 83.78485 33847 ft 413 kts 241°
2026-05-07 12:10 19.17459 83.73167 33847 ft 413 kts 241°
2026-05-07 12:11 19.14676 83.67851 33853 ft 413 kts 241°
2026-05-07 12:11 19.11902 83.62532 33834 ft 412 kts 241°
2026-05-07 12:12 19.09122 83.57228 33848 ft 413 kts 241°
2026-05-07 12:12 19.06340 83.51928 33846 ft 413 kts 241°
2026-05-07 12:13 19.03563 83.46619 33840 ft 413 kts 241°
2026-05-07 12:13 19.00783 83.41312 33860 ft 413 kts 241°
2026-05-07 12:14 18.97997 83.36009 33836 ft 414 kts 241°
2026-05-07 12:14 18.95191 83.30689 33863 ft 415 kts 241°
2026-05-07 12:15 18.92384 83.25362 33878 ft 416 kts 241°
2026-05-07 12:15 18.89570 83.20025 33873 ft 416 kts 241°
2026-05-07 12:16 18.86760 83.14690 33895 ft 416 kts 241°
2026-05-07 12:16 18.83953 83.09365 33889 ft 416 kts 241°
2026-05-07 12:17 18.81133 83.04030 33888 ft 416 kts 241°
2026-05-07 12:17 18.78308 82.98698 33904 ft 416 kts 241°
2026-05-07 12:18 18.75490 82.93360 33908 ft 416 kts 241°
2026-05-07 12:18 18.72668 82.88023 33908 ft 416 kts 241°
2026-05-07 12:19 18.69851 82.82706 33910 ft 416 kts 241°
2026-05-07 12:19 18.67016 82.77376 33914 ft 416 kts 241°
2026-05-07 12:20 18.64184 82.72051 33912 ft 416 kts 241°
2026-05-07 12:20 18.61356 82.66721 33902 ft 417 kts 241°
2026-05-07 12:21 18.58528 82.61391 33901 ft 417 kts 241°
2026-05-07 12:21 18.55688 82.56061 33904 ft 417 kts 241°
2026-05-07 12:22 18.52852 82.50735 33889 ft 417 kts 241°
2026-05-07 12:22 18.50012 82.45417 33889 ft 417 kts 241°
2026-05-07 12:23 18.47170 82.40093 33873 ft 417 kts 241°
2026-05-07 12:23 18.44329 82.34773 33874 ft 417 kts 241°
2026-05-07 12:24 18.41487 82.29451 33872 ft 417 kts 241°
2026-05-07 12:24 18.38640 82.24130 33871 ft 417 kts 241°
2026-05-07 12:25 18.35791 82.18811 33874 ft 417 kts 241°
2026-05-07 12:25 18.32941 82.13491 33875 ft 417 kts 241°
2026-05-07 12:26 18.30093 82.08173 33860 ft 417 kts 241°
2026-05-07 12:26 18.27237 82.02855 33857 ft 417 kts 240°
2026-05-07 12:27 18.24379 81.97536 33843 ft 418 kts 240°
2026-05-07 12:27 18.21526 81.92253 33830 ft 418 kts 240°
2026-05-07 12:28 18.18658 81.86926 33832 ft 419 kts 240°
2026-05-07 12:28 18.15789 81.81590 33835 ft 419 kts 240°
2026-05-07 12:29 18.12914 81.76254 33830 ft 419 kts 240°
2026-05-07 12:29 18.10043 81.70933 33833 ft 420 kts 240°
2026-05-07 12:30 18.07161 81.65607 33832 ft 420 kts 240°
2026-05-07 12:30 18.04280 81.60286 33834 ft 420 kts 240°
2026-05-07 12:31 18.01399 81.54954 33839 ft 419 kts 241°
2026-05-07 12:31 17.98516 81.49626 33832 ft 419 kts 240°
2026-05-07 12:32 17.95630 81.44305 33825 ft 419 kts 240°
2026-05-07 12:32 17.92743 81.38980 33827 ft 419 kts 240°
2026-05-07 12:33 17.88404 81.31001 33808 ft 420 kts 240°
2026-05-07 12:33 17.85509 81.25674 33808 ft 421 kts 240°
2026-05-07 12:34 17.82611 81.20333 33803 ft 421 kts 240°
2026-05-07 12:34 17.79707 81.14995 33804 ft 421 kts 240°
2026-05-07 12:35 17.76793 81.09658 33806 ft 421 kts 240°
2026-05-07 12:35 17.73888 81.04325 33807 ft 421 kts 240°
2026-05-07 12:36 17.70976 80.98994 33795 ft 421 kts 240°
2026-05-07 12:36 17.69527 80.96338 33354 ft 418 kts 240°
2026-05-07 12:36 17.68091 80.93708 32843 ft 414 kts 240°
2026-05-07 12:37 17.66662 80.91093 32375 ft 411 kts 240°
2026-05-07 12:37 17.65253 80.88514 31893 ft 408 kts 240°
2026-05-07 12:37 17.63849 80.85945 31422 ft 405 kts 240°
2026-05-07 12:37 17.62447 80.83389 30970 ft 402 kts 240°
2026-05-07 12:38 17.61056 80.80857 30511 ft 400 kts 240°
2026-05-07 12:38 17.59674 80.78341 30071 ft 397 kts 240°
2026-05-07 12:38 17.58303 80.75841 29596 ft 395 kts 240°
2026-05-07 12:38 17.56945 80.73354 29104 ft 392 kts 241°
2026-05-07 12:39 17.55596 80.70884 28630 ft 389 kts 241°
2026-05-07 12:39 17.54253 80.68430 28166 ft 386 kts 241°
2026-05-07 12:39 17.52929 80.66016 27723 ft 384 kts 241°
2026-05-07 12:39 17.51604 80.63604 27265 ft 382 kts 240°
2026-05-07 12:40 17.50278 80.61195 26817 ft 381 kts 240°
2026-05-07 12:40 17.48961 80.58799 26390 ft 379 kts 240°
2026-05-07 12:40 17.47652 80.56415 25979 ft 376 kts 240°
2026-05-07 12:40 17.46354 80.54051 25569 ft 374 kts 240°
2026-05-07 12:41 17.45059 80.51697 25125 ft 372 kts 241°
2026-05-07 12:41 17.43770 80.49351 24865 ft 371 kts 241°
2026-05-07 12:41 17.42479 80.47004 24802 ft 372 kts 241°
2026-05-07 12:41 17.41190 80.44658 24816 ft 373 kts 241°
2026-05-07 12:42 17.39906 80.42325 24814 ft 373 kts 241°
2026-05-07 12:42 17.38610 80.39976 24812 ft 373 kts 241°
2026-05-07 12:42 17.37312 80.37625 24810 ft 373 kts 241°
2026-05-07 12:42 17.36014 80.35273 24811 ft 373 kts 241°
2026-05-07 12:43 17.34719 80.32924 24812 ft 373 kts 241°
2026-05-07 12:43 17.33422 80.30571 24810 ft 373 kts 241°
2026-05-07 12:43 17.32126 80.28223 24811 ft 373 kts 241°
2026-05-07 12:43 17.30831 80.25879 24809 ft 373 kts 241°
2026-05-07 12:44 17.29541 80.23545 24499 ft 369 kts 241°
2026-05-07 12:44 17.28260 80.21226 24087 ft 367 kts 241°
2026-05-07 12:44 17.26991 80.18930 23686 ft 365 kts 241°
2026-05-07 12:44 17.25748 80.16624 23254 ft 362 kts 245°
2026-05-07 12:45 17.24830 80.14185 22744 ft 359 kts 255°
2026-05-07 12:45 17.24335 80.11636 22270 ft 357 kts 264°
2026-05-07 12:45 17.24245 80.09053 21796 ft 355 kts 270°
2026-05-07 12:45 17.24243 80.06496 21340 ft 353 kts 270°
2026-05-07 12:46 17.24235 80.03935 20897 ft 351 kts 270°
2026-05-07 12:46 17.24222 80.01400 20461 ft 349 kts 270°
2026-05-07 12:46 17.24206 79.98868 20032 ft 347 kts 270°
2026-05-07 12:46 17.24190 79.96359 19620 ft 346 kts 269°
2026-05-07 12:47 17.24173 79.93897 19198 ft 344 kts 269°
2026-05-07 12:47 17.24158 79.91401 18784 ft 343 kts 270°
2026-05-07 12:47 17.24146 79.88915 18384 ft 341 kts 270°
2026-05-07 12:47 17.24133 79.86438 17971 ft 340 kts 269°
2026-05-07 12:48 17.24117 79.83974 17530 ft 338 kts 270°
2026-05-07 12:48 17.24103 79.81527 17109 ft 336 kts 270°
2026-05-07 12:48 17.24089 79.79118 16702 ft 333 kts 270°
2026-05-07 12:48 17.24076 79.76704 16297 ft 331 kts 270°
2026-05-07 12:49 17.24062 79.74302 15890 ft 330 kts 270°
2026-05-07 12:49 17.24047 79.71910 15501 ft 328 kts 270°
2026-05-07 12:49 17.24031 79.69531 15106 ft 327 kts 270°
2026-05-07 12:49 17.24014 79.67168 14844 ft 323 kts 270°
2026-05-07 12:50 17.23997 79.64806 14815 ft 325 kts 270°
2026-05-07 12:50 17.23985 79.63204 14820 ft 326 kts 270°
2026-05-07 12:50 17.23969 79.60841 14821 ft 326 kts 270°
2026-05-07 12:50 17.23953 79.58468 14821 ft 326 kts 270°
2026-05-07 12:51 17.23935 79.56093 14824 ft 326 kts 270°
2026-05-07 12:51 17.23917 79.53728 14642 ft 324 kts 270°
2026-05-07 12:51 17.23899 79.51378 14251 ft 323 kts 270°
2026-05-07 12:51 17.23879 79.49036 13880 ft 321 kts 271°
2026-05-07 12:52 17.23859 79.46705 13505 ft 320 kts 271°
2026-05-07 12:52 17.23841 79.44388 13129 ft 318 kts 270°
2026-05-07 12:52 17.23825 79.42076 12719 ft 317 kts 270°
2026-05-07 12:52 17.23807 79.39774 12339 ft 316 kts 270°
2026-05-07 12:53 17.23788 79.37480 11939 ft 315 kts 270°
2026-05-07 12:53 17.23770 79.35190 11560 ft 314 kts 270°
2026-05-07 12:53 17.23752 79.32908 11185 ft 313 kts 270°
2026-05-07 12:53 17.23733 79.30634 10810 ft 312 kts 270°
2026-05-07 12:54 17.23714 79.28366 10444 ft 312 kts 270°
2026-05-07 12:54 17.23694 79.26102 10093 ft 311 kts 270°
2026-05-07 12:54 17.23671 79.23848 9769 ft 309 kts 270°
2026-05-07 12:54 17.23648 79.21634 9584 ft 301 kts 269°
2026-05-07 12:55 17.23626 79.19458 9281 ft 298 kts 270°
2026-05-07 12:55 17.23605 79.17295 8915 ft 297 kts 270°
2026-05-07 12:55 17.23585 79.15140 8586 ft 296 kts 270°
2026-05-07 12:55 17.23567 79.12988 8228 ft 296 kts 270°
2026-05-07 12:56 17.23549 79.10842 7923 ft 294 kts 269°
2026-05-07 12:56 17.23531 79.08711 7840 ft 292 kts 269°
2026-05-07 12:56 17.23511 79.06576 7850 ft 294 kts 269°
2026-05-07 12:56 17.23490 79.04438 7850 ft 295 kts 270°
2026-05-07 12:57 17.23468 79.02308 7855 ft 294 kts 270°
2026-05-07 12:57 17.23446 79.00165 7854 ft 296 kts 270°
2026-05-07 12:57 17.23425 78.98019 7864 ft 295 kts 270°
2026-05-07 12:57 17.23404 78.95876 7865 ft 296 kts 270°
2026-05-07 12:58 17.23384 78.93723 7869 ft 295 kts 270°
2026-05-07 12:58 17.23364 78.91576 7869 ft 294 kts 270°
2026-05-07 12:58 17.23346 78.89434 7857 ft 294 kts 270°
2026-05-07 12:58 17.23329 78.87306 7584 ft 291 kts 270°
2026-05-07 12:59 17.23315 78.85192 7237 ft 291 kts 270°
2026-05-07 12:59 17.23303 78.83076 6907 ft 291 kts 270°
2026-05-07 12:59 17.23289 78.80957 6534 ft 292 kts 270°
2026-05-07 12:59 17.23275 78.78830 6163 ft 293 kts 270°
2026-05-07 13:00 17.23259 78.76705 5772 ft 288 kts 270°
2026-05-07 13:00 17.23244 78.74670 5397 ft 278 kts 269°
2026-05-07 13:00 17.23251 78.72649 5012 ft 270 kts 269°
2026-05-07 13:00 17.23241 78.70744 4644 ft 261 kts 269°
2026-05-07 13:01 17.23218 78.68870 4227 ft 255 kts 269°
2026-05-07 13:01 17.23194 78.67075 4016 ft 240 kts 271°
2026-05-07 13:01 17.23172 78.65393 4008 ft 217 kts 271°
2026-05-07 13:01 17.23153 78.63861 4018 ft 206 kts 270°
2026-05-07 13:02 17.23135 78.62369 4012 ft 204 kts 270°
2026-05-07 13:02 17.23116 78.60917 3999 ft 193 kts 271°
2026-05-07 13:02 17.23099 78.59555 4001 ft 187 kts 271°
2026-05-07 13:02 17.23082 78.58186 4039 ft 185 kts 271°
2026-05-07 13:03 17.23065 78.56867 4008 ft 184 kts 270°
2026-05-07 13:03 17.23048 78.55559 3859 ft 175 kts 270°
2026-05-07 13:03 17.23032 78.54310 3654 ft 169 kts 271°
2026-05-07 13:03 17.23016 78.53107 3455 ft 162 kts 270°
2026-05-07 13:04 17.23001 78.51955 3262 ft 157 kts 273°
2026-05-07 13:04 17.22981 78.50838 3100 ft 149 kts 271°
2026-05-07 13:04 17.22968 78.49772 2904 ft 146 kts 273°
2026-05-07 13:04 17.22954 78.48734 2704 ft 140 kts 274°
2026-05-07 13:05 17.22939 78.47704 2489 ft 139 kts 273°
2026-05-07 13:05 17.22939 78.46698 2315 ft 141 kts 272°
2026-05-07 13:05 17.22910 78.45658 2100 ft 142 kts 270°
2026-05-07 13:05 17.22916 78.44670 1982 ft 123 kts 270°